Mombasa, Kenya

11:59 AM EAT on August 20, 2017 (GMT +0300)
Mombasa

Weather History for HKMO - March, 2013

Change the Weather History Date:

Wednesday, March 20, 2013

  Actual Average Record
Temperature  
Mean Temperature 83 °F -  
Max Temperature 91 °F 91 °F 93 °F (2003)
Min Temperature 75 °F 73 °F 74 °F (2014)
Cooling Degree Days 18    
Growing Degree Days 33 (Base 50)    
Moisture  
Dew Point 74 °F    
Average Humidity 76    
Maximum Humidity 97    
Minimum Humidity 49    
Precipitation  
Precipitation 0.00 in 0.16 in - ()
Sea Level Pressure  
Sea Level Pressure 29.81 in    
Wind  
Wind Speed 4 mph ()    
Max Wind Speed 12 mph    
Max Gust Speed -    
Visibility 7.9 miles    
Events Rain , Thunderstorm    
Averages and records for this station are not official NWS values.
T = Trace of Precipitation, MM = Missing Value Source: Averaged Metar Reports

Daily Weather History Graph

Daily Weather History Graph

Search for Another Location

Airport or City:

Trip Planner

Search our weather history database for the weather conditions in past years. The results will help you decide how hot, cold, wet, or windy it might be!

Date:

Astronomy

Mar. 20, 2013 Rise Set
Actual Time 6:25 AM EAT 6:32 PM EAT
Civil Twilight 6:04 AM EAT 6:52 PM EAT
Nautical Twilight 5:40 AM EAT 7:16 PM EAT
Astronomical Twilight 5:16 AM EAT 7:41 PM EAT
Moon 1:06 PM EAT 12:29 AM EAT
Length of Visible Light 12h 47m
Length of Day
12h 06m
First Quarter, 56% of the Moon is Illuminated
Mar 20
First Quarter
Mar 27
Full
Apr 3
Last Quarter
Apr 10
New
Apr 18
First Quarter

Hourly Weather History & Observations

Time (EAT) Temp. Heat Index Dew Point Humidity Pressure Visibility Wind Dir Wind Speed Gust Speed Precip Events Conditions
12:00 AM 80.6 °F 87.1 °F 77.0 °F 89% 29.80 in 6.2 mi Calm Calm - N/A   Mostly Cloudy
1:00 AM 80.6 °F 86.2 °F 75.2 °F 84% 29.80 in 5.6 mi SW 4.6 mph - N/A Rain , Thunderstorm Thunderstorms and Rain
3:00 AM 74 °F - 73 °F 97% 29.78 in 9 mi SSW 4.6 mph - - Thunderstorm Thunderstorm
5:00 AM 77.0 °F - 73.4 °F 89% 29.77 in 6.2 mi Calm Calm - N/A   Mostly Cloudy
7:00 AM 77.0 °F - 73.4 °F 89% 29.83 in 6.2 mi Calm Calm - N/A   Mostly Cloudy
8:00 AM 77.0 °F - 73.4 °F 89% 29.86 in 6.2 mi Calm Calm - N/A   Mostly Cloudy
9:00 AM 79 °F - 73 °F 78% 29.89 in 19 mi West 4.6 mph - -   Scattered Clouds
9:00 AM 78.8 °F - 73.4 °F 83% 29.89 in 6.2 mi West 4.6 mph - N/A   Mostly Cloudy
10:00 AM 80.6 °F 85.4 °F 73.4 °F 79% 29.92 in 6.2 mi West 5.8 mph - N/A   Mostly Cloudy
11:00 AM 84.2 °F 90.9 °F 73.4 °F 70% 29.89 in 6.2 mi WSW 8.1 mph - N/A   Mostly Cloudy
12:00 PM 87.8 °F 97.6 °F 75.2 °F 66% 29.86 in 6.2 mi NNE 5.8 mph - N/A   Mostly Cloudy
1:00 PM 91.4 °F 96.8 °F 69.8 °F 49% 29.80 in 6.2 mi WSW 11.5 mph - N/A   Mostly Cloudy
2:00 PM 91.4 °F 98.4 °F 71.6 °F 52% 29.77 in 6.2 mi SE 10.4 mph - N/A   Mostly Cloudy
3:00 PM 90 °F - 75 °F 54% 29.76 in 19 mi SE 11.5 mph - -   Partly Cloudy
3:00 PM 89.6 °F 99.8 °F 75.2 °F 62% 29.74 in 6.2 mi SE 11.5 mph - N/A   Partly Cloudy
4:00 PM 86.0 °F 95.1 °F 75.2 °F 70% 29.74 in 6.2 mi SSE 11.5 mph - N/A   Partly Cloudy
5:00 PM 86.0 °F 95.1 °F 75.2 °F 70% 29.74 in 6.2 mi ESE 6.9 mph - N/A   Mostly Cloudy
6:00 PM 84.2 °F 94.1 °F 77.0 °F 79% 29.77 in 6.2 mi South 5.8 mph - N/A   Mostly Cloudy
6:30 PM 84.2 °F 94.1 °F 77.0 °F 79% 29.77 in 6.2 mi SE 5.8 mph - N/A   Mostly Cloudy
8:00 PM 82.4 °F 90.9 °F 77.0 °F 84% 29.80 in 6.2 mi SSE 4.6 mph - N/A   Partly Cloudy
9:00 PM 82 °F - 77 °F 82% 29.82 in 19 mi South 3.5 mph - -   Scattered Clouds
9:00 PM 82.4 °F 86.3 °F 69.8 °F 66% 29.83 in 6.2 mi South 3.5 mph - N/A   Partly Cloudy
10:00 PM 82.4 °F 90.9 °F 77.0 °F 84% 29.86 in 6.2 mi SE 4.6 mph - N/A   Partly Cloudy
11:00 PM 82.4 °F 90.9 °F 77.0 °F 84% 29.86 in 6.2 mi South 3.5 mph - N/A   Partly Cloudy